Погода в Сыресях

Россия / Чувашская Республика     55°04′05″N   46°24′59″E
темп.,
°C
ветер,
м/с
пор.,
м/с
влажн.,
%
обл.,
%
осадки,
мм/ч
давл.,
гПа
погр.,
м
19 апреля, пн
пн1900:00+6всв61370100 0.0 1023533
03:00+4всв51160100 0.0 1024445
06:00+3всв61266100 0.0 1025502
09:00+5в71154100 0.0 1025750
12:00+6в81042100 0.0 10261214
15:00+7в8114666 0.0 10251359
18:00+7в7115261 0.0 10251322
21:00+6в51055100 0.0 10261031
20 апреля, вт
вт2000:00+5в61155100 0.0 1027750
03:00+2в513565 0.0 1027455
06:00+2в614635 0.0 1028622
09:00+7вюв913410 0.0 10271024
12:00+9вюв911354 0.0 10271359
15:00+10вюв911358 0.0 10261485
18:00+8вюв81339100 0.0 10241093
21:00+7вюв81538100 0.0 1023924
21 апреля, ср
ср2100:00+6вюв101743100 0.0 1021923
03:00+5вюв112047100 0.0 1019900
06:00+2юв102077100 1.2 1017862
09:00+3юв112085100 3.5 1017904
12:00+4юв111881100 0.6 1016915
15:00+5ююв101682100 0.6 1017814
18:00+4ююв81588100 0.1 1018639
21:00+4ююв71291100 0.1 1019495
22 апреля, чт
чт2200:00+4ююв51193100 0.0 1019421
03:00+4ююв51096100 1.9 1019401
06:00+5ююв51194100 0.8 1020477
09:00+7ю4990100 0.9 1020594
12:00+9ю5778100 0.0 1021855
15:00+12ююз576773 0.3 10211205
18:00+11ю597431 1.3 1022359
21:00+7ююв38925 1.8 1023173
23 апреля, пт
пт2300:00+6ююв22925 0.0 102331
03:00+5ю229142 0.0 102413
06:00+6ююв22895 0.0 102456
09:00+12ю34655 0.0 1024483
12:00+15ю33495 0.0 10241499
15:00+16ю234071 0.0 10232201
18:00+15ю1148100 0.0 102212
21:00+11юв487097 0.0 1022206